Weather in Makhachkala

Russia / Republic of Dagestan     42˚58′59″N   47˚30′16″E
temp.,
°C
wind,
m/s
gust,
m/s
humid.,
%
clouds,
%
prec.,
mm/h
press.,
hPa
HPBL,
m
2 december, wed
wed200:00+8˚ese128698 0.8 1026155
03:00+8˚ese238996 1.6 1026264
06:00+8˚se1387100 0.9 1027241
09:00+8˚ese2386100 2.5 1028294
12:00+8˚ese5691100 2.3 1028439
15:00+8˚ese6889100 3.5 1027521
18:00+8˚e5787100 0.7 1029556
21:00+8˚e5787100 1.4 1030529
3 december, thu
thu300:00+8˚ese5784100 0.6 1030564
03:00+7˚e5685100 1.1 1030525
06:00+7˚e5786100 0.6 1030507
09:00+7˚ese6785100 1.3 1031593
12:00+7˚ese6882100 0.3 1030642
15:00+8˚ese6883100 0.6 1029673
18:00+8˚ese7983100 0.2 1030688
21:00+8˚ese81084100 0.4 1030716
4 december, fri
fri400:00+8˚ese81184100 0.3 1030735
03:00+7˚ese81183100 0.4 1029749
06:00+7˚ese81184100 0.3 1029782
09:00+8˚ese91283100 0.6 1029844
12:00+8˚ese81283100 0.4 1028863
15:00+8˚ese91282100 1.1 1028854
18:00+8˚ese81182100 0.4 1028826
21:00+7˚ese81083100 0.8 1028751
5 december, sat
sat500:00+7˚ese7982100 0.3 1028725
03:00+8˚ese6983100 1.0 1027702
06:00+8˚ese71088100 1.6 1027678
09:00+7˚ese81089100 4.1 1028679
12:00+7˚ese81089100 1.4 1027667
15:00+7˚ese7988100 2.3 1027631
18:00+7˚ese7988100 1.3 1028600
21:00+7˚ese7988100 2.6 1029611
6 december, sun
sun600:00+7˚ese71088100 1.8 1029658
03:00+7˚ese7985100 3.6 1029700
06:00+7˚ese7987100 1.3 1029663
09:00+7˚ese81088100 2.6 1030681
12:00+6˚ese7987100 1.4 1029658
15:00+7˚ese7977100 2.1 1029812
18:00+6˚ese6880100 0.2 1030740
21:00+6˚ese6878100 0.3 1031738